Weather History for Chicago DuPage, IL

Change the Weather History Date:

Sunday, November 25, 2012

  Actual Average Record
Temperature  
Mean Temperature 34 °F 36 °F  
Max Temperature 43 °F 44 °F 58 °F (2006)
Min Temperature 24 °F 27 °F 10 °F (2005)
Degree Days  
Heating Degree Days 31 29  
Month to date heating degree days 637 586  
Since 1 July heating degree days 1264 1097  
Cooling Degree Days 0 0  
Month to date cooling degree days 0 0  
Year to date cooling degree days 1093 814  
Moisture  
Dew Point 23 °F    
Average Humidity 68    
Maximum Humidity 88    
Minimum Humidity 47    
Precipitation  
Precipitation 0.00 in 0.10 in 0.17 in (2000)
Month to date precipitation 0.91 2.57  
Year to date precipitation 19.85 34.68  
Sea Level Pressure  
Sea Level Pressure 29.94 in    
Wind  
Wind Speed 7 mph (West)    
Max Wind Speed 15 mph    
Max Gust Speed 18 mph    
Visibility 10 miles    
Events      
T = Trace of Precipitation, MM = Missing Value Source: NWS Daily Summary

Daily Weather History Graph

Daily Weather History Graph

Search for Another Location

Airport:

Trip Planner

Search our weather history database for the weather conditions in past years. The results will help you decide how hot, cold, wet, or windy it might be!

Date:

Astronomy

Nov. 25, 2012 Rise Set
Actual Time 6:55 AM CST 4:24 PM CST
Civil Twilight 6:24 AM CST 4:55 PM CST
Nautical Twilight 5:50 AM CST 5:30 PM CST
Astronomical Twilight 5:16 AM CST 6:03 PM CST
Moon 2:43 PM CST 4:07 AM CST
Length of Visible Light 10h 31m
Length of Day
9h 29m
Waxing Gibbous, 93% of the Moon is Illuminated
Nov 25
Waxing Gibbous
Nov 28
Full
Dec 6
Last Quarter
Dec 13
New
Dec 19
First Quarter

Hourly Weather History & Observations

Time (CST) Temp. Windchill Dew Point Humidity Pressure Visibility Wind Dir Wind Speed Gust Speed Precip Events Conditions
12:52 AM 28.9 °F 19.2 °F 21.9 °F 75% 29.95 in 10.0 mi South 11.5 mph - N/A   Overcast
1:52 AM 30.0 °F 20.0 °F 21.9 °F 72% 29.91 in 10.0 mi South 12.7 mph - N/A   Scattered Clouds
2:52 AM 30.0 °F 19.5 °F 23.0 °F 75% 29.88 in 10.0 mi South 13.8 mph - N/A   Overcast
3:52 AM 30.0 °F 22.4 °F 23.0 °F 75% 29.88 in 10.0 mi SSW 8.1 mph - N/A   Overcast
4:52 AM 28.9 °F 23.9 °F 23.0 °F 78% 29.87 in 10.0 mi SSW 4.6 mph - N/A   Clear
4:53 AM 28.4 °F 23.3 °F 23.0 °F 80% 29.84 in 10.0 mi SSW 4.6 mph - N/A   Clear
5:52 AM 26.1 °F 21.9 °F 21.9 °F 84% 29.88 in 10.0 mi South 3.5 mph - N/A   Clear
6:52 AM 24.1 °F - 21.0 °F 88% 29.88 in 10.0 mi Calm Calm - N/A   Clear
7:52 AM 28.0 °F - 23.0 °F 81% 29.89 in 10.0 mi Calm Calm - N/A   Clear
8:52 AM 33.1 °F 26.9 °F 24.1 °F 70% 29.89 in 10.0 mi WSW 6.9 mph - N/A   Clear
9:52 AM 36.0 °F 28.5 °F 23.0 °F 59% 29.90 in 10.0 mi WNW 10.4 mph 16.1 mph N/A   Clear
10:52 AM 39.0 °F 32.3 °F 24.1 °F 55% 29.90 in 10.0 mi NW 10.4 mph - N/A   Clear
11:52 AM 39.0 °F 34.8 °F 24.1 °F 55% 29.89 in 10.0 mi West 5.8 mph - N/A   Clear
12:52 PM 41.0 °F 35.8 °F 24.1 °F 51% 29.89 in 10.0 mi West 8.1 mph - N/A   Clear
1:52 PM 43.0 °F 37.2 °F 24.1 °F 47% 29.89 in 10.0 mi WNW 10.4 mph - N/A   Clear
2:52 PM 42.1 °F 37.1 °F 24.1 °F 49% 29.91 in 10.0 mi WNW 8.1 mph - N/A   Clear
3:52 PM 39.0 °F 34.0 °F 24.1 °F 55% 29.94 in 10.0 mi WNW 6.9 mph - N/A   Clear
4:52 PM 35.1 °F 30.1 °F 23.0 °F 61% 29.96 in 10.0 mi NW 5.8 mph - N/A   Clear
5:52 PM 32.0 °F 27.5 °F 21.9 °F 66% 29.97 in 10.0 mi NNW 4.6 mph - N/A   Clear
6:52 PM 30.9 °F 25.2 °F 23.0 °F 72% 30.01 in 10.0 mi WNW 5.8 mph - N/A   Clear
7:52 PM 33.1 °F 27.7 °F 25.0 °F 72% 30.03 in 10.0 mi WNW 5.8 mph - N/A   Clear
8:52 PM 34.0 °F 28.0 °F 25.0 °F 70% 30.03 in 10.0 mi NW 6.9 mph - N/A   Partly Cloudy
9:52 PM 34.0 °F 28.8 °F 25.0 °F 70% 30.05 in 10.0 mi WNW 5.8 mph - N/A   Overcast
10:52 PM 34.0 °F 28.0 °F 24.1 °F 67% 30.06 in 10.0 mi NW 6.9 mph - N/A   Mostly Cloudy
11:52 PM 32.0 °F 25.6 °F 23.0 °F 69% 30.08 in 10.0 mi NNW 6.9 mph - N/A   Clear